Location: Unspecified
(0.0000°N, 0.0000°E)
Time: 18:50:16
(UTC+00:00)

ISS - Pass Details

Date: 21 November 2017
Orbit: 402 x 407 km, 51.6° (Epoch: 21 November)

Event Time Altitude Azimuth Distance (km) Brightness Sun altitude
Rises 18:18:42 0° 225° (SW) 2,321 1.4 -7.7°
Reaches altitude 10° 18:20:50 10° 231° (SW) 1,459 0.4 -8.2°
Maximum altitude 18:23:59 46° 305° (NW) 554 -2.9 -8.9°
Drops below altitude 10° 18:27:07 10° 20° (NNE) 1,450 -1.4 -9.6°
Enters shadow 18:27:54 - 23° (NNE) 1,761 -1.0 -9.8°
